Weather History for Ely, NV

Change the Weather History Date:

Monday, October 20, 2014

  Actual Average Record
Temperature  
Mean Temperature 53 °F 44 °F  
Max Temperature 72 °F 61 °F 80 °F (2003)
Min Temperature 34 °F 27 °F 5 °F (1996)
Degree Days  
Heating Degree Days 12 21  
Month to date heating degree days 257 357  
Since 1 July heating degree days 425 673  
Cooling Degree Days 0 0  
Month to date cooling degree days 0 0  
Year to date cooling degree days 286 218  
Growing Degree Days 3 (Base 50)    
Moisture  
Dew Point 31 °F    
Average Humidity 48    
Maximum Humidity 75    
Minimum Humidity 20    
Precipitation  
Precipitation 0.00 in 0.03 in 0.56 in (2004)
Month to date precipitation T 0.65  
Year to date precipitation 8.09 8.12  
Snow  
Snow 0.00 in 0.10 in 0.50 in (1984)
Month to date snowfall 0.0 1.7  
Since 1 July snowfall 0.0 2.1  
Since 1 September snowfall 0.0 2.1  
Snow Depth 0.00 in    
Sea Level Pressure  
Sea Level Pressure 29.87 in    
Wind  
Wind Speed 15 mph (South)    
Max Wind Speed 28 mph    
Max Gust Speed 35 mph    
Visibility 10 miles    
Events      
T = Trace of Precipitation, MM = Missing Value Source: NWS Daily Summary

Daily Weather History Graph

Daily Weather History Graph

Search for Another Location

Airport:

Trip Planner

Search our weather history database for the weather conditions in past years. The results will help you decide how hot, cold, wet, or windy it might be!

Date:

Astronomy

Oct. 20, 2014 Rise Set
Actual Time 6:54 AM PDT 5:53 PM PDT
Civil Twilight 6:27 AM PDT 6:20 PM PDT
Nautical Twilight 5:55 AM PDT 6:51 PM PDT
Astronomical Twilight 5:24 AM PDT 7:22 PM PDT
Moon 3:47 AM PDT (10/20) 4:17 PM PDT (10/20)
Length of Visible Light 11h 53m
Length of Day
10h 58m
Waning Crescent, 9% of the Moon is Illuminated
Oct 20
Waning Crescent
Oct 23
New
Oct 30
First Quarter
Nov 6
Full
Nov 14
Last Quarter

Hourly Weather History & Observations

Time (PDT) Temp. Windchill Dew Point Humidity Pressure Visibility Wind Dir Wind Speed Gust Speed Precip Events Conditions
12:53 AM 42.1 °F 35.2 °F 30.0 °F 62% 29.91 in 10.0 mi South 12.7 mph - N/A   Clear
1:53 AM 41.0 °F 33.5 °F 30.0 °F 65% 29.91 in 10.0 mi South 13.8 mph - N/A   Clear
2:53 AM 39.9 °F 31.8 °F 28.9 °F 65% 29.91 in 10.0 mi South 15.0 mph - N/A   Clear
3:53 AM 37.9 °F 30.0 °F 28.0 °F 68% 29.93 in 10.0 mi SSE 12.7 mph - N/A   Clear
4:53 AM 37.9 °F 35.5 °F 28.0 °F 68% 29.93 in 10.0 mi Variable 3.5 mph - N/A   Clear
5:53 AM 37.0 °F 29.3 °F 28.0 °F 70% 29.94 in 10.0 mi SSE 11.5 mph - N/A   Clear
6:53 AM 35.1 °F 27.9 °F 28.0 °F 76% 29.99 in 10.0 mi South 9.2 mph - N/A   Clear
7:53 AM 41.0 °F 34.3 °F 30.9 °F 67% 30.00 in 10.0 mi South 11.5 mph - N/A   Clear
8:53 AM 57.9 °F - 34.0 °F 41% 29.94 in 10.0 mi SSW 13.8 mph - N/A   Clear
9:53 AM 64.4 °F - 33.8 °F 32% 30.11 in 10.0 mi SSW 11.5 mph - N/A   Clear
10:53 AM 70.0 °F - 33.1 °F 26% 29.88 in 10.0 mi SSE 18.4 mph 27.6 mph N/A   Clear
11:53 AM 70.0 °F - 32.0 °F 25% 29.87 in 10.0 mi SSW 26.5 mph 32.2 mph N/A   Clear
12:53 PM 71.1 °F - 30.9 °F 23% 29.83 in 10.0 mi SSW 20.7 mph 32.2 mph N/A   Clear
1:53 PM 71.1 °F - 30.0 °F 22% 29.83 in 10.0 mi SSW 17.3 mph 32.2 mph N/A   Clear
2:53 PM 71.6 °F - 30.2 °F 22% 30.02 in 10.0 mi SSW 12.7 mph 21.9 mph N/A   Clear
3:53 PM 71.1 °F - 28.9 °F 21% 29.81 in 10.0 mi South 19.6 mph 26.5 mph N/A   Mostly Cloudy
4:53 PM 68.0 °F - 28.9 °F 23% 29.81 in 10.0 mi SSW 18.4 mph 26.5 mph N/A   Scattered Clouds
5:53 PM 64.0 °F - 30.0 °F 28% 29.82 in 10.0 mi South 11.5 mph - N/A   Partly Cloudy
6:53 PM 55.9 °F - 30.0 °F 37% 29.87 in 10.0 mi SSE 10.4 mph - N/A   Clear
7:53 PM 55.9 °F - 30.9 °F 39% 29.84 in 10.0 mi SSE 12.7 mph - N/A   Partly Cloudy
8:53 PM 57.9 °F - 33.1 °F 39% 29.76 in 10.0 mi SSE 18.4 mph - N/A   Clear
9:53 PM 54.0 °F - 33.1 °F 45% 29.75 in 10.0 mi South 10.4 mph - N/A   Clear
10:53 PM 55.0 °F - 34.0 °F 45% 29.73 in 10.0 mi SSE 13.8 mph - N/A   Clear
11:53 PM 55.0 °F - 34.0 °F 45% 29.72 in 10.0 mi South 17.3 mph - N/A   Clear